Regional Weather Roundup
Issued by NWS State College, PA

Home | Current Version | Previous Version | Graphics & Text | Print | Product List | Glossary Off
Versions: 1 2 3 4 5 6 7 8 9 10 11 12 13 14 15 16 17 18 19 20 21 22 23 24 25 26 27 28 29 30 31 32 33 34 35 36 37 38 39 40 41 42 43 44 45 46 47 48 49 50

000
ASUS41 KCTP 271110
RWRCTP

REGIONAL WEATHER ROUNDUP
NATIONAL WEATHER SERVICE STATE COLLEGE PA
700 AM EDT THU JUL 27 2017

Note: "fair" indicates few or no clouds below 12,000 feet with no
significant weather and/or obstructions to visibility.

* = STATION THAT DOES NOT REPORT PRECIPITATION /E.G. RAIN...SNOW...ETC/
    THUNDER OR FOG.

PAZ002>004-007>009-013>016-020>023-029>032-271200-
WESTERN PENNSYLVANIA

CITY           SKY/WX    TMP DP  RH WIND       PRES   REMARKS
ERIE           CLOUDY    68  61  78 S6        29.98S
MEADVILLE      CLOUDY    65  63  93 CALM      30.02F
FRANKLIN*      CLOUDY    61  57  88 CALM      30.03F
NEW CASTLE     FAIR      64  63  96 CALM      30.01F
BEAVER COUNTY  CLEAR     63  63 100 CALM      30.01  FOG
BUTLER*        PTCLDY    63  59  88 CALM      30.01S
PITTSBURGH INT CLOUDY    65  62  90 CALM      30.00F
PITTSBURGH     PTCLDY    66  62  87 SE5       30.00F FOG
INDIANA*       CLEAR     66  64  94 CALM      30.05S
LATROBE        CLEAR     63  63 100 CALM      30.03R
WASHINGTON CO* MOCLDY    59  57  94 CALM      30.01F
$$

PAZ004>006-010>012-017>019-024>028-033>037-041-042-045-046-049>053-271200-
CENTRAL PENNSYLVANIA

CITY           SKY/WX    TMP DP  RH WIND       PRES   REMARKS
BRADFORD       PTCLDY    60  60 100 CALM      30.06R
DUBOIS         CLOUDY    62  59  90 CALM      30.04R
CLEARFIELD     CLOUDY    59  59 100 CALM      30.05R
JOHNSTOWN      PTCLDY    64  62  93 S5        30.06S
ALTOONA        CLOUDY    62  62 100 CALM      30.05S
STATE COLLEGE  CLOUDY    66  63  88 W5        30.04R
WILLIAMSPORT   CLOUDY    67  64  90 CALM      30.02R
SELINSGROVE    CLOUDY    70  67  90 CALM      30.03S
FT INDIANTOWN  CLOUDY    67  66  94 CALM      30.04F
CAPITAL CITY   CLOUDY    72  65  78 E5        30.03F
HARRISBURG     CLOUDY    71  67  87 SE6       30.02F
YORK           CLOUDY    70  68  93 CALM      30.04F
$$

PAZ038>040-043-044-047-048-054-055-060>062-067>071-271200-
EASTERN PENNSYLVANIA

CITY           SKY/WX    TMP DP  RH WIND       PRES   REMARKS
SCRANTON       CLOUDY    68  63  84 S5        30.05S
MOUNT POCONO   FOG       61  61 100 SW6       30.08F VSB 3/4
ALLENTOWN      CLOUDY    68  61  78 SE3       30.06S
QUAKERTOWN*    CLOUDY    64  63  94 CALM      30.08R
READING        CLOUDY    68  65  90 CALM      30.04S
LANCASTER      CLOUDY    69  67  93 E3        30.04F
COATESVILLE    CLOUDY    66  64  94 CALM      30.07F
POTTSTOWN      CLOUDY    65  63  93 NE3       30.07F
BLUE BELL      CLOUDY    63  63 100 CALM      30.07S
DOYLESTOWN     CLOUDY    63  62  97 CALM      30.06S
WILLOW GROVE   NOT AVBL
NORTH PHILA    CLOUDY    66  62  87 CALM      30.07F
PHILADELPHIA   PTSUNNY   69  64  84 S6        30.06S
$$



USA.gov is the U.S. government's official web portal to all federal, state and local government web resources and services.